This is the latest recevied weather packets stored in our database for station/object KB4NWJ. If no packets are shown the sender has not sent any weather packets the latest 1 day(s).
| Time | Temp. | Humidity | Pressure | Rain* | Wind** | Luminosity | Snow |
|---|---|---|---|---|---|---|---|
| 1778094286 | 25.56° C | 74% | 1015.8 hPa | 0 mm | - | 232 W/m² | - |
| 1778093073 | 26.11° C | 74% | 1015.6 hPa | 0 mm | - | 344 W/m² | - |
| 1778092163 | 26.11° C | 75% | 1015.7 hPa | 0 mm | - | 355 W/m² | - |
| 1778091558 | 26.11° C | 75% | 1015.9 hPa | 0 mm | - | 248 W/m² | - |
| 1778088830 | 25.56° C | 72% | 1015.5 hPa | 0 mm | - | 164 W/m² | - |
| 1778088224 | 26.67° C | 68% | 1015.5 hPa | 0 mm | - | 335 W/m² | - |
| 1778087316 | 27.22° C | 69% | 1015.7 hPa | 0 mm | - | 865 W/m² | - |
| 1778087012 | 26.67° C | 71% | 1015.8 hPa | 0 mm | - | 716 W/m² | - |
| 1778086105 | 26.11° C | 71% | 1016 hPa | 0 mm | - | 354 W/m² | - |
| 1778084588 | 25.56° C | 76% | 1016.1 hPa | 0 mm | - | 878 W/m² | - |
| 1778083075 | 24.44° C | 79% | 1016.3 hPa | 0 mm | - | 899 W/m² | - |
| 1778081638 | 25° C | 78% | 1016.6 hPa | 0 mm | - | 526 W/m² | - |
| 1778081335 | 23.33° C | 80% | 1016.8 hPa | 0 mm | - | 795 W/m² | - |
| 1778079821 | 22.78° C | 83% | 1017 hPa | 0 mm | - | 344 W/m² | - |
| 1778079214 | 22.22° C | 84% | 1017 hPa | 0 mm | - | 383 W/m² | - |
| 1778078912 | 21.67° C | 86% | 1017.1 hPa | 0 mm | - | 225 W/m² | - |
| 1778078307 | 21.11° C | 87% | 1016.9 hPa | 0 mm | - | 313 W/m² | - |
| 1778076493 | 21.11° C | 88% | 1017.2 hPa | 0 mm | - | 158 W/m² | - |
| 1778074976 | 20.56° C | 86% | 1016.3 hPa | 0 mm | - | 161 W/m² | - |
| 1778074370 | 20.56° C | 86% | 1016.2 hPa | 0 mm | - | 151 W/m² | - |
| 1778074066 | 20.56° C | 88% | 1016.1 hPa | 0 mm | - | 152 W/m² | - |
| 1778073764 | 20° C | 88% | 1016.1 hPa | 0 mm | - | 162 W/m² | - |
| 1778073462 | 20° C | 89% | 1016 hPa | 0 mm | - | 148 W/m² | - |
| 1778071645 | 20° C | 90% | 1015.6 hPa | 0 mm | - | 138 W/m² | - |
| 1778071343 | 20° C | 91% | 1015.3 hPa | 0 mm | - | 157 W/m² | - |
* Rain latest hour (hover to see other rain measurements)
** Current wind speed in m/s (hover to see current wind gust speed)